Wind_Speed
11 11 12 12 12 12 12 12 11 11 10 10 10 9 9 8 7 6 5 5 5 6 7 9 10 10 11 12 12 13 13 12 13 13 13 12 12 11 12 11 11 10 9
9 10 10 11 11 11 11 11 11 10 10 10 9 9 9 8 7 6 5 5 5 5 6 7 8 9 10 11 11 11 12 12 13 13 13 12 12 12 12 12 12 12 11
8 9 9 9 9 10 10 10 10 10 9 9 9 9 8 8 7 6 5 4 3 3 4 6 7 8 9 10 10 11 11 11 12 12 12 12 13 13 13 12 12 11 11
7 8 8 8 8 8 8 8 8 8 8 8 8 8 8 7 7 6 5 4 3 1 2 3 5 7 8 9 10 10 10 10 10 11 11 11 11 12 12 12 11 10 10
6 6 6 7 7 6 6 6 6 7 7 7 7 7 7 7 7 6 5 4 3 1 1 2 4 6 7 8 9 10 10 10 10 9 9 8 9 9 10 10 9 9 9
5 4 5 5 5 4 4 4 4 4 5 5 5 6 6 6 6 6 5 4 3 2 1 2 3 4 5 6 7 8 8 9 9 8 8 7 6 6 7 6 6 7 7
3 3 3 2 2 2 2 2 2 2 3 4 4 4 4 4 5 5 5 4 4 3 3 3 3 4 4 5 5 6 7 7 8 8 7 6 5 5 5 5 6 6 6
2 2 1 0 0 1 1 2 2 3 3 4 4 4 4 4 4 4 4 4 4 4 4 4 4 4 4 4 4 4 5 6 7 7 7 6 6 5 5 4 5 5 5
2 2 2 2 2 2 3 3 4 4 5 6 6 6 6 5 5 5 4 4 5 5 5 5 5 4 4 4 3 3 4 5 6 6 6 6 5 5 4 4 4 5 5
2 3 3 3 3 4 4 5 6 6 7 8 8 8 8 7 7 6 6 6 6 6 6 6 5 5 5 4 3 3 3 4 5 5 6 5 5 5 4 3 4 5 5
4 5 5 6 6 6 6 7 7 8 8 9 10 10 10 10 9 9 8 8 8 8 7 7 6 6 5 5 4 3 4 5 5 5 5 5 5 5 5 4 4 4 4
8 8 8 8 8 8 8 9 9 9 10 10 10 11 12 12 12 12 11 10 10 10 9 8 7 7 6 6 4 4 5 6 5 5 6 6 5 5 5 5 5 5 5
11 11 12 11 11 11 11 11 11 11 11 11 12 12 13 14 14 14 14 13 13 12 11 10 9 8 7 7 6 5 6 6 6 6 6 7 7 6 6 6 6 6 6
13 13 14 14 14 14 14 13 13 13 13 14 13 13 14 15 15 15 15 15 15 14 14 13 11 10 9 8 7 7 8 8 7 7 7 7 8 8 7 7 7 7 7
17 16 16 16 17 17 16 16 16 16 16 16 16 15 15 16 16 17 17 17 17 17 16 15 14 13 12 10 10 9 10 9 9 8 8 8 8 8 8 8 8 9 8
21 20 19 18 18 18 18 18 19 19 18 18 18 17 17 17 18 18 19 19 19 19 18 18 16 15 14 13 12 12 11 11 11 10 9 9 9 9 9 9 10 10 10
25 24 23 21 21 20 20 20 20 20 20 20 19 19 19 18 18 19 20 20 20 20 20 19 19 18 17 16 15 14 13 13 13 12 11 11 11 10 10 10 11 11 12
28 27 26 26 25 25 24 23 23 23 23 23 22 21 21 20 19 19 20 20 21 21 21 21 21 20 20 19 18 17 16 15 15 14 13 13 12 12 12 11 12 12 13
32 31 30 29 29 28 27 26 26 26 26 26 25 24 22 22 21 21 21 21 21 21 21 21 22 22 22 21 21 20 18 16 16 16 15 14 14 13 13 13 13 13 14
36 35 34 33 32 31 30 29 29 28 28 29 28 27 26 25 24 23 22 22 22 22 22 22 22 23 23 23 23 22 20 19 18 17 17 17 16 15 14 15 15 15 15
39 38 38 37 35 34 33 32 32 31 32 31 31 30 30 28 26 25 24 24 23 22 23 24 24 24 24 25 25 24 23 22 20 19 18 19 18 17 16 17 17 18 18
41 42 42 41 39 37 35 34 34 34 33 33 32 32 32 29 27 25 26 25 24 23 24 25 25 25 26 26 26 26 25 24 24 22 20 20 20 20 19 19 19 20 20
40 41 42 42 41 40 38 37 36 35 35 34 33 33 33 31 29 28 27 27 26 26 25 24 25 26 27 27 28 28 28 26 26 25 24 22 21 22 22 22 22 22 23
40 41 41 42 41 40 40 39 38 36 35 35 35 35 33 32 32 30 28 28 28 28 26 26 26 26 28 28 29 29 30 29 27 26 26 25 24 23 23 23 23 24 24
36 37 38 38 39 39 40 39 38 37 36 36 36 36 35 34 33 32 31 29 29 29 27 27 27 26 27 28 29 30 31 30 29 28 27 27 26 25 24 23 23 24 25
32 33 34 35 36 37 38 38 38 38 37 36 36 36 35 34 34 33 32 31 30 29 28 28 29 29 28 28 28 29 31 30 29 29 28 28 26 25 25 23 23 23 24
Wind_Direction
85 85 83 79 75 71 69 66 64 64 63 64 65 68 73 79 86 95 104 124 145 160 175 187 195 205 214 217 222 226 229 230 229 233 237 242 249 251 252 254 258 263 269
91 90 87 83 79 74 71 68 65 64 63 63 62 63 65 68 74 84 97 115 139 159 179 194 206 214 219 222 226 231 235 240 240 240 244 249 255 257 254 256 259 262 265
99 95 92 88 84 79 74 70 67 64 63 62 61 61 62 62 64 68 77 90 114 148 178 199 212 221 227 229 232 237 241 245 247 246 251 256 261 258 254 255 259 261 261
107 101 98 94 90 85 79 73 69 66 63 60 59 58 58 58 59 60 63 69 79 111 180 206 220 230 236 238 238 241 244 248 251 253 255 259 265 260 254 253 255 259 257
114 108 102 98 92 89 84 79 72 66 62 58 55 54 54 54 54 54 53 52 51 44 253 236 237 240 245 247 245 245 247 251 253 257 259 266 271 267 258 252 254 254 255
123 116 109 102 93 84 79 77 70 60 54 50 47 44 44 45 45 45 42 39 34 17 327 277 262 256 257 258 254 251 251 251 252 254 260 271 275 274 264 252 248 252 252
139 130 122 110 97 80 62 53 45 33 26 24 23 23 24 27 31 30 28 23 18 7 343 313 293 282 273 269 264 257 251 252 249 250 256 264 278 280 264 258 253 254 254
152 159 169 186 302 330 336 334 333 333 334 337 341 343 348 357 4 7 8 6 2 353 340 328 320 310 299 288 277 263 250 248 248 250 254 266 278 283 272 270 260 248 250
199 218 235 259 276 285 293 300 304 307 309 312 314 316 316 318 327 334 340 341 340 339 335 330 328 325 318 304 289 275 255 249 253 258 259 266 271 273 275 272 261 252 255
245 247 252 260 270 277 283 288 292 297 300 301 302 302 301 300 302 308 315 317 318 319 321 323 324 322 323 318 304 291 271 257 254 257 259 262 263 265 270 272 266 260 255
269 265 265 266 268 273 277 281 285 289 293 295 294 293 291 291 291 293 297 301 304 305 306 311 313 313 316 319 314 297 274 261 258 257 259 261 262 265 264 263 266 267 261
276 272 270 270 271 273 274 276 279 282 285 287 288 287 285 285 285 286 288 290 292 294 295 298 301 304 307 310 309 294 275 271 266 262 261 261 260 261 262 260 263 266 266
278 277 275 273 273 273 272 273 275 278 279 280 281 282 282 282 281 280 281 283 285 286 286 287 288 291 295 298 296 290 279 276 271 263 261 260 260 261 259 260 264 268 268
269 270 272 272 272 273 272 273 274 276 278 277 276 276 278 279 278 277 277 278 279 281 281 280 280 282 283 284 285 284 282 280 277 271 267 266 266 265 264 264 265 266 266
268 265 264 266 269 271 272 274 275 276 277 278 277 276 275 275 276 276 275 275 275 276 276 276 275 276 276 277 280 281 280 280 276 273 272 270 269 269 269 267 266 264 263
268 267 265 262 264 268 270 276 279 279 279 280 280 277 275 274 273 273 272 271 272 272 272 271 270 270 271 274 276 275 273 272 272 275 275 274 273 271 269 269 267 264 261
267 264 263 263 263 265 267 269 273 277 278 278 279 279 276 274 272 271 270 270 270 272 272 271 270 269 269 270 271 271 271 270 270 273 274 274 275 274 272 272 271 269 265
270 268 266 264 263 264 264 266 269 273 275 276 275 275 276 273 271 269 268 268 267 269 269 269 268 268 268 268 270 269 270 269 268 269 270 273 275 275 275 274 273 271 269
271 270 269 268 267 265 263 264 266 269 270 273 274 272 272 273 272 270 268 267 266 264 265 266 265 265 267 268 270 268 267 266 267 268 269 270 272 275 275 273 272 272 270
269 269 268 267 268 268 268 267 266 268 268 271 274 273 271 271 270 269 267 268 267 264 263 263 264 264 265 266 269 265 264 263 263 267 270 269 271 274 274 273 274 274 271
267 266 266 266 265 266 266 267 267 268 268 270 272 273 272 269 267 266 267 267 267 266 265 265 264 263 264 264 264 262 261 261 260 262 266 269 273 276 275 274 274 273 270
265 264 264 264 264 264 265 265 266 267 267 269 271 271 271 270 266 266 266 267 268 269 268 265 263 264 264 263 260 258 257 259 260 261 261 264 270 273 275 275 274 274 271
264 263 262 262 263 263 263 264 264 264 266 266 268 268 268 269 267 269 267 267 268 268 270 268 264 265 265 263 259 256 254 257 260 261 262 262 265 269 272 273 275 276 273
264 262 260 260 261 262 262 262 262 262 264 264 266 266 267 268 267 267 265 266 266 267 267 267 267 269 266 261 259 255 252 255 257 258 261 263 263 265 267 269 271 275 274
264 260 258 258 259 261 261 261 261 261 262 264 265 266 268 268 268 269 266 266 267 266 265 268 266 268 266 262 257 253 250 251 253 254 258 260 262 263 263 264 267 270 272
264 261 259 258 258 258 260 261 262 262 262 263 264 265 266 267 268 270 270 269 272 269 268 268 266 267 264 261 255 251 249 248 249 251 255 258 259 260 261 262 263 265 268
Height
5914 5913 5913 5913 5912 5912 5912 5911 5911 5910 5910 5910 5910 5910 5910 5910 5909 5909 5909 5909 5909 5909 5909 5910 5910 5911 5911 5911 5912 5912 5913 5913 5914 5914 5915 5915 5915 5915 5916 5916 5916 5916 5916
5916 5915 5915 5915 5914 5914 5914 5913 5913 5913 5912 5912 5911 5911 5910 5910 5910 5910 5910 5910 5910 5910 5910 5910 5910 5910 5911 5911 5911 5911 5912 5912 5913 5913 5913 5914 5914 5914 5914 5914 5914 5914 5914
5917 5917 5917 5916 5916 5916 5916 5916 5915 5914 5914 5913 5913 5912 5911 5911 5911 5911 5910 5910 5910 5910 5910 5910 5910 5910 5910 5910 5910 5911 5911 5911 5911 5912 5912 5912 5912 5912 5912 5912 5912 5913 5913
5918 5918 5918 5918 5918 5918 5918 5917 5917 5916 5915 5915 5914 5913 5913 5912 5911 5911 5911 5910 5910 5910 5910 5910 5910 5910 5909 5909 5910 5910 5910 5910 5910 5910 5910 5910 5910 5910 5910 5910 5910 5911 5911
5919 5919 5919 5919 5919 5919 5919 5919 5918 5918 5917 5916 5915 5914 5914 5913 5912 5912 5911 5911 5910 5910 5910 5909 5909 5909 5909 5908 5909 5909 5909 5909 5909 5909 5909 5909 5908 5908 5908 5908 5909 5909 5910
5920 5920 5920 5920 5920 5920 5920 5920 5919 5919 5918 5917 5916 5915 5915 5914 5913 5912 5912 5911 5911 5910 5909 5909 5909 5908 5908 5908 5908 5908 5908 5908 5908 5908 5908 5908 5908 5907 5907 5907 5908 5908 5908
5920 5920 5920 5921 5921 5921 5921 5921 5920 5919 5919 5918 5917 5916 5915 5915 5914 5913 5912 5911 5911 5910 5909 5909 5908 5908 5907 5907 5907 5907 5907 5907 5907 5907 5907 5907 5907 5906 5906 5906 5907 5907 5907
5920 5920 5921 5921 5921 5921 5921 5921 5920 5920 5919 5918 5918 5917 5916 5915 5914 5913 5912 5911 5911 5910 5909 5908 5908 5907 5907 5906 5906 5906 5906 5906 5905 5906 5906 5906 5906 5905 5905 5905 5905 5906 5906
5920 5920 5920 5920 5921 5921 5921 5920 5920 5920 5919 5918 5918 5917 5916 5915 5914 5913 5912 5911 5910 5909 5909 5908 5907 5907 5906 5906 5905 5905 5905 5905 5905 5905 5905 5905 5905 5904 5904 5904 5905 5905 5905
5920 5920 5920 5920 5920 5920 5920 5920 5919 5919 5918 5918 5917 5916 5915 5914 5914 5913 5912 5911 5910 5909 5908 5907 5907 5906 5906 5905 5905 5904 5904 5904 5904 5904 5904 5904 5904 5903 5903 5904 5904 5904 5904
5920 5920 5919 5919 5919 5919 5918 5918 5918 5917 5917 5916 5915 5915 5914 5913 5912 5912 5911 5910 5909 5908 5908 5907 5906 5906 5905 5904 5904 5904 5903 5903 5903 5903 5903 5903 5903 5903 5903 5903 5903 5903 5903
5919 5918 5918 5918 5917 5917 5917 5916 5916 5915 5915 5914 5913 5912 5912 5911 5911 5910 5909 5909 5908 5907 5906 5906 5905 5905 5904 5904 5903 5903 5902 5902 5902 5902 5902 5902 5901 5902 5902 5902 5902 5902 5902
5917 5916 5916 5915 5915 5915 5915 5914 5913 5913 5912 5912 5911 5910 5909 5908 5908 5908 5907 5907 5906 5905 5905 5904 5904 5904 5903 5903 5902 5902 5901 5900 5901 5901 5900 5900 5900 5900 5900 5900 5900 5900 5901
5916 5915 5914 5913 5912 5911 5911 5911 5910 5910 5909 5909 5908 5907 5906 5905 5905 5905 5904 5904 5903 5903 5903 5902 5902 5902 5902 5901 5901 5900 5899 5899 5899 5899 5899 5899 5899 5899 5899 5899 5899 5899 5899
5912 5912 5911 5911 5910 5909 5908 5907 5907 5906 5906 5905 5905 5904 5903 5902 5901 5901 5901 5901 5900 5900 5900 5899 5899 5899 5899 5899 5899 5898 5898 5898 5897 5897 5897 5897 5897 5897 5897 5897 5897 5897 5897
5906 5907 5907 5906 5906 5906 5904 5904 5903 5902 5901 5901 5900 5900 5900 5899 5898 5897 5897 5897 5897 5896 5897 5896 5896 5896 5896 5896 5896 5896 5896 5896 5895 5895 5895 5895 5895 5895 5895 5895 5895 5895 5895
5899 5899 5900 5900 5900 5901 5900 5900 5899 5898 5897 5896 5896 5895 5896 5895 5895 5894 5893 5892 5892 5892 5892 5892 5892 5892 5893 5893 5893 5893 5893 5893 5893 5893 5892 5892 5892 5892 5892 5892 5892 5892 5892
5892 5892 5892 5893 5894 5894 5894 5894 5894 5893 5892 5891 5890 5890 5890 5890 5890 5890 5889 5888 5888 5887 5887 5887 5888 5888 5888 5889 5890 5890 5890 5890 5889 5889 5889 5889 5889 5889 5890 5889 5889 5889 5889
5884 5884 5885 5885 5886 5886 5887 5887 5887 5887 5887 5885 5884 5884 5884 5884 5884 5884 5884 5883 5883 5883 5883 5883 5884 5884 5884 5884 5885 5885 5886 5886 5886 5885 5885 5886 5886 5886 5886 5886 5886 5886 5886
5875 5875 5876 5877 5877 5878 5878 5879 5880 5880 5880 5879 5878 5877 5878 5878 5877 5877 5877 5878 5877 5877 5878 5878 5879 5879 5879 5879 5879 5880 5881 5882 5882 5882 5881 5882 5882 5883 5883 5883 5883 5883 5882
5865 5865 5866 5867 5868 5869 5870 5870 5871 5872 5871 5872 5872 5871 5870 5870 5870 5870 5870 5871 5871 5871 5871 5872 5872 5873 5873 5874 5874 5874 5875 5876 5878 5878 5878 5877 5877 5878 5878 5879 5879 5878 5878
5855 5855 5855 5856 5858 5859 5860 5861 5862 5863 5863 5863 5864 5863 5862 5862 5864 5864 5864 5864 5865 5865 5865 5865 5866 5866 5867 5867 5868 5868 5869 5871 5872 5873 5874 5874 5873 5873 5874 5874 5874 5874 5874
5845 5845 5845 5846 5847 5849 5850 5851 5852 5853 5854 5855 5855 5855 5854 5854 5855 5856 5857 5857 5857 5858 5858 5858 5859 5859 5860 5861 5861 5862 5863 5864 5866 5867 5868 5869 5869 5869 5869 5869 5869 5869 5868
5834 5834 5835 5836 5837 5838 5840 5841 5842 5844 5845 5846 5846 5846 5846 5846 5847 5847 5848 5848 5849 5850 5850 5851 5851 5852 5852 5853 5854 5855 5857 5858 5859 5860 5862 5862 5863 5864 5864 5864 5864 5863 5863
5823 5824 5825 5826 5827 5828 5830 5831 5833 5834 5836 5837 5837 5837 5837 5838 5839 5839 5839 5840 5841 5841 5842 5843 5843 5844 5845 5846 5846 5848 5849 5851 5852 5854 5855 5856 5857 5857 5858 5859 5859 5858 5858
5814 5815 5816 5817 5818 5819 5821 5822 5823 5825 5826 5827 5828 5829 5829 5830 5831 5830 5830 5831 5832 5833 5834 5835 5835 5836 5837 5838 5839 5840 5842 5844 5846 5847 5849 5849 5850 5851 5852 5853 5853 5853 5853